Regional Weather Roundup
Issued by NWS Wakefield, VA

Home | Current Version | Previous Version | Graphics & Text | Print | Product List | Glossary On
Versions: 1 2 3 4 5 6 7 8 9 10 11 12 13 14 15 16 17 18 19 20 21 22 23 24 25 26 27 28 29 30 31 32 33 34 35 36 37 38 39 40 41 42 43 44 45 46 47 48 49 50
693
ASUS41 KAKQ 282214
RWRAKQ

REGIONAL WEATHER ROUNDUP
NATIONAL WEATHER SERVICE WAKEFIELD VA
500 PM EST TUE FEB 28 2017

Note: "fair" indicates few or no clouds below 12,000 feet with no
significant weather and/or obstructions to visibility. * = Denotes
station may not report precipitation (e.g., rain,snow,etc.),
thunder or fog.

VAZ042-051-052>054-056-282300-
NORTHERN VIRGINIA

CITY           SKY/WX    TMP DP  RH WIND       PRES   REMARKS
WASH NATIONAL  CLOUDY    65  51  60 W3        30.15R
DULLES         LGT RAIN  61  49  64 NW6       30.15R
FORT BELVOIR   CLOUDY    65  50  57 CALM      30.13S
QUANTICO       CLOUDY    61  50  67 CALM      30.13F
FREDERICKSBRG* CLOUDY    69  53  57 SE3       30.10F
STAFFORD*      CLOUDY    67  50  54 CALM      30.15S
WARRENTON      LGT RAIN  66  43  43 NW10      30.16R
CULPEPER*      RAIN      64  48  57 NW8       30.18R
MANASSAS*      CLOUDY    64  48  56 NW6       30.16R
LEESBURG*      RAIN      61  52  72 MISG      30.16R
WINCHESTER     LGT RAIN  50  45  81 SW3       30.15S
FRONT ROYAL*   CLOUDY    52  48  87 CALM      30.13F
LURAY*         RAIN      52  52 100 SE6       30.16F
$$

VAZ048-049-060>072-079>083-282300-
CENTRAL AND SOUTH CENTRAL VIRGINIA

CITY           SKY/WX    TMP DP  RH WIND       PRES   REMARKS
RICHMOND       CLOUDY    71  56  58 S13       30.11S
CHESTERFIELD*  FAIR      72  46  40 S7G16     30.13S
PETERSBURG*    CLOUDY    71  55  57 S5        30.12F
HANOVER        CLOUDY    71  53  52 S8        30.12S
TAPPAHANNOCK*  CLOUDY    70  46  41 S3        30.12S
QUINTON*       FAIR      71  57  61 MISG      30.11S
CHARLOTTSVILLE RAIN      61  53  75 NW7       30.17R
GORDONSVILLE*  CLOUDY    65  52  61 NW8       30.15R
ORANGE*        LGT RAIN  63  52  67 W8        30.17R
LOUISA*        CLOUDY    72  55  56 W3        30.12R
BUMPASS*       MOCLDY    69  53  56 SW6       30.11S
FARMVILLE*     CLOUDY    72  55  56 SW7       30.10S
CREWE*         FAIR      71  56  60 S3        30.11F
FORT PICKETT*  NOT AVBL
CHASE CITY*    FAIR      71  52  51 CALM      30.13R
CLARKSVILLE*   FAIR      72  55  56 S7G16     30.12S
SOUTH HILL*    MOSUNNY   71  58  62 S9        30.19R
LAWRENCEVILLE* FAIR      72  57  58 S8        30.13S
EMPORIA*       PTSUNNY   72  57  60 SE5       30.14F
$$

VAZ088>098-282300-
SOUTHEAST VIRGINIA

CITY           SKY/WX    TMP DP  RH WIND       PRES   REMARKS
NORFOLK        CLOUDY    74  56  53 S13       30.14S
VIRGINIA BEACH CLOUDY    70  55  59 S9        30.14F
NORFOLK NAVAL  CLOUDY    74  55  51 S9        30.15S
WEST POINT*    CLOUDY    66  54  64 SE6       30.13S
SALUDA*        FAIR      64  57  78 SE3       30.12F
NEWPORT NEWS   PTSUNNY   72  55  55 S9        30.13F
LANGLEY AFB    CLOUDY    70  56  62 SE6       30.13F
FORT EUSTIS    CLOUDY    72  56  57 S7        30.10F
WILLIAMSBURG*  CLOUDY    72  57  60 CALM      30.13S
HR EXEC AP*    FAIR      73  55  53 S8        30.12F
FRANKLIN*      CLOUDY    74  56  54 S8        30.14S
US460-WAKEFLD  CLOUDY    73  57  57 S5        30.13F
$$

VAZ020-022-025-037-045-282300-
WEST CENTRAL AND SOUTHWEST VIRGINIA

CITY           SKY/WX    TMP DP  RH WIND       PRES   REMARKS
STAUNTON*      RAIN      52  48  87 CALM      30.20F
WAYNESBORO*    CLOUDY    53  49  86 NW7       30.19R
HOT SPRINGS VA LGT RAIN  46  43  87 W13       30.20F
LYNCHBURG      CLOUDY    65  51  60 NW3       30.17R
DANVILLE       PTSUNNY   72  55  55 SW7       30.13S
SOUTH BOSTON*  FAIR      72  54  53 S7        30.12S
MARTINSVILLE   PTSUNNY   67  51  56 CALM      30.17R
ROANOKE        LGT RAIN  58  53  84 CALM      30.20R
BLACKSBURG     RAIN      56  51  81 SW3       30.22S
DUBLIN*        LGT RAIN  57  51  81 W7        30.21R
MARION*        RAIN      54  53  95 W9        30.21F
HILLSVILLE*    RAIN      55  49  80 CALM      30.18F
RICHLANDS*     RAIN      56  55  96 SW14G22   30.14F
WISE*          LGT RAIN  59  52  77 S16G24    30.10F
ABINGDON*      RAIN      55  54  98 CALM      30.17F
$$

MDZ021>025-VAZ099-100-282300-
SOUTHERN MARYLAND AND THE DELMARVA PENINSULA

CITY           SKY/WX    TMP DP  RH WIND       PRES   REMARKS
PATUXENT RIVER CLOUDY    57  53  86 SE5       30.12F
BAY BRIDGE APT CLOUDY    54  48  82 CALM      30.14F
LEONARDTOWN    CLOUDY    63  54  72 SE3       30.14S
DOVER          CLOUDY    55  55 100 CALM      30.13S
GEORGETOWN     CLOUDY    66  54  65 S10       30.14F
EASTON         CLOUDY    64  52  63 S5        30.18F
CAMBRIDGE      MOCLDY    64  54  68 CALM      30.14R
SALISBURY      CLOUDY    65  55  70 S6        30.14F
OCEAN CITY     CLOUDY    53  48  83 VRB5      30.16F
WALLOPS ISLAND CLOUDY    56  52  86 S8        30.16F
ACCOMACK*      CLOUDY    63  56  77 S10       30.15F
$$

NCZ012>017-030>032-282300-
NORTH CENTRAL AND EASTERN NORTH CAROLINA

CITY           SKY/WX    TMP DP  RH WIND       PRES   REMARKS
ROANOKE RAPIDS FAIR      73  59  60 S9        30.14F
RALEIGH        CLOUDY    74  56  53 SW14      30.16S
ELIZABETH CITY CLOUDY    72  59  63 S7        30.17F
AHOSKIE*         N/A     75  58  55 S3        30.15S
EDENTON*       CLOUDY    73  60  63 S10       30.17S
CURRITUCK*     CLOUDY    72  59  63 S5        30.18S
KILL DEVIL HLS NOT AVBL
MANTEO         CLOUDY    67  61  81 S15       30.20S
CAPE HATTERAS  SUNNY     71  63  75 SW8       30.21S HAZE
TARBORO*       NOT AVBL
GOLDSBORO      CLOUDY    76  64  66 S10G17    30.14F
WASHINGTON     CLOUDY    74  61  63 S8        30.18R
GREENVILLE     MOSUNNY   77  61  57 S14       30.18R
NEW BERN       MOSUNNY   73  62  68 S9        30.21S
WILMINGTON     MOSUNNY   72  65  78 S9        30.21S
$$

VAZ048-282300-
ELSEWHERE

CITY           SKY/WX    TMP DP  RH WIND       PRES   REMARKS
HARRISBURG PA  LGT RAIN  57  44  62 S9        30.10F
BALTIMORE      CLOUDY    62  51  67 CALM      30.13S
ANNAPOLIS      CLOUDY    57  50  77 SE6       30.13F
ANDREWS AFB    PTSUNNY   64  50  60 CALM      30.12F
PHILADELPHIA   CLOUDY    64  49  57 S8        30.14S
HENDERSON NC   CLOUDY    70  54  56 S14       30.14S
GREENSBORO     CLOUDY    71  56  58 S13       30.13F
ROCKY MOUNT    CLOUDY    75  60  59 S9        30.15F
$$

VAZ100-282300-
MARINE

STATION/POSITION TIME  TEMP    WIND        PRES    WAVE   SWELL
                       AIR SEA DIR/SP/G            HT/PER HT/PER
                 (UTC) (F)     (DEG/KT/KT) (MB)    (FT/S) (FT/S)
CAPE MAY NJ      2148   55 46  160/ 12/ 18 1020.5F
LEWES DE         2148          170/  7/ 10   N/A
OCEAN-CITY-INLET 2148          210/  5/  6   N/A
WACHAPREAGUE VA  2142   58 58  180/  5/  7 1021.2F
THOMAS POINT MD  2200   51 45  160/  7/  7   N/A
GOOSES REEF MD   2200   50 45  160/  4/  4 1021.0
COVE POINT MD    2142   53     170/  8/  8 1021.0F
SOLOMONS ISLAND  2148           90/  7/  8   N/A
BISHOPS HEAD MD  2148   54 52  160/  9/ 11 1020.4F
PINEY POINT MD   2148          120/  5/  7   N/A
POTOMAC MD       2150   52     140/  6/  8 1018.9F
CAMBRIDGE MD     2148   64 49  220/  2/  4 1020.1R
LEWISETTA VA     2142   64 50  140/  8/  9 1019.1F
RAPPAHANNOCK LGT 2148          140/ 15/ 16 1020.8F
YORK RVR RNG VA  2142   54     150/ 11/ 12 1019.6F
YORKTOWN VA      2148   55 51   90/  1/  3 1019.8F
JAMESTOWN VA     2150   69     180/  6/  8   N/A
DOMINION TERM VA 2148   66     200/  8/ 10 1020.5F
KIPTOPEKE VA     2148          170/ 15/ 17   N/A
CHES BAY BRIDGE  2148   69 50  190/ 15/ 16 1020.5F
CAPE HENRY VA    2148   69     160/  8/ 10   N/A
WILLOUBY STN VA  2148   67     200/  3/  5 1021.4F
S CRANEY ISL VA  2148   71     190/ 10/ 14 1020.3F
CAPE HENRY BUOY  2142      50                N/A     3/ 6
OFFSHORE WE BUOY 2151      50                N/A     4/ 7
64NM E OF VA BCH 2150   58 53  170/ 10/ 10 1022.4F   4/ 6   3/ 6
DUCK PIER NC     2148   69 51  180/ 12/ 15 1021.3F
44100 DUCK FRF   2135      50                N/A     4/ 6
44056 DUCK FRF   2130      52                N/A     3/ 6
OREGON INLET NC  2142   64 58  190/ 12/ 13 1022.6F
HATTERAS NC      2148   68 64  220/  8/ 10 1022.8F
DIAMOND SHLS NC  2150   72 74  210/ 19/ 23 1023.1R   4/ 5   2/ 8
CAPE LOOKOUT NC  2100   69     220/  9/ 14 1023.2R
$$




USA.gov is the U.S. government's official web portal to all federal, state and local government web resources and services.